TimeMDT,TemperatureF,Dew PointF,Humidity,Sea Level PressureIn,VisibilityMPH,Wind Direction,Wind SpeedMPH,Gust SpeedMPH,PrecipitationIn,Events,Conditions,WindDirDegrees,DateUTC
12:55 AM,44.1,36.0,73,29.88,10.0,SW,8.1,-,0.00,,Scattered Clouds,220,2013-10-01 06:55:00
1:55 AM,46.0,36.0,68,29.88,10.0,South,12.7,-,N/A,,Overcast,180,2013-10-01 07:55:00
2:55 AM,45.0,35.1,68,29.89,10.0,SSW,9.2,-,N/A,,Mostly Cloudy,210,2013-10-01 08:55:00
3:55 AM,45.0,34.0,65,29.89,10.0,SSW,15.0,-,N/A,,Scattered Clouds,210,2013-10-01 09:55:00
4:55 AM,44.1,34.0,68,29.90,10.0,WSW,9.2,-,N/A,,Mostly Cloudy,240,2013-10-01 10:55:00
5:55 AM,43.0,34.0,71,29.92,10.0,SSW,12.7,-,N/A,,Partly Cloudy,210,2013-10-01 11:55:00
6:55 AM,43.0,35.1,74,29.94,10.0,SSW,6.9,-,N/A,,Overcast,210,2013-10-01 12:55:00
7:55 AM,39.0,33.1,79,29.95,10.0,South,6.9,-,N/A,,Clear,180,2013-10-01 13:55:00
8:55 AM,41.0,35.1,79,29.96,10.0,South,5.8,-,N/A,,Mostly Cloudy,180,2013-10-01 14:55:00
9:55 AM,46.9,33.1,59,29.96,10.0,South,8.1,-,N/A,,Mostly Cloudy,180,2013-10-01 15:55:00
10:55 AM,48.0,30.9,52,29.97,10.0,SW,12.7,-,N/A,,Mostly Cloudy,230,2013-10-01 16:55:00
11:55 AM,48.9,28.9,46,29.97,10.0,WSW,8.1,-,N/A,,Overcast,240,2013-10-01 17:55:00
12:55 PM,53.1,30.0,41,29.96,10.0,West,12.7,-,N/A,,Partly Cloudy,270,2013-10-01 18:55:00
1:55 PM,50.0,33.1,52,29.96,10.0,Variable,4.6,-,0.00,Rain,Light Rain,0,2013-10-01 19:55:00
2:55 PM,48.0,37.0,66,29.95,10.0,North,8.1,-,0.03,Rain,Light Rain,350,2013-10-01 20:55:00
3:55 PM,46.9,35.1,63,29.98,10.0,WNW,10.4,-,0.00,,Overcast,300,2013-10-01 21:55:00
4:55 PM,46.9,37.9,71,29.98,10.0,SSE,6.9,-,0.01,,Mostly Cloudy,150,2013-10-01 22:55:00
5:55 PM,44.1,39.0,82,30.00,10.0,SE,6.9,-,0.02,Rain,Light Rain,140,2013-10-01 23:55:00
6:55 PM,44.1,39.0,82,30.01,10.0,South,8.1,-,0.00,,Overcast,170,2013-10-02 00:55:00
7:55 PM,44.1,39.0,82,30.04,10.0,South,5.8,-,N/A,,Overcast,180,2013-10-02 01:55:00
8:55 PM,43.0,39.0,86,30.06,10.0,SSW,4.6,-,0.00,,Overcast,200,2013-10-02 02:55:00
9:55 PM,42.1,39.0,89,30.06,10.0,SSE,5.8,-,N/A,,Mostly Cloudy,160,2013-10-02 03:55:00
10:55 PM,42.1,39.0,89,30.08,10.0,South,6.9,-,N/A,,Overcast,170,2013-10-02 04:55:00
11:55 PM,42.1,36.0,79,30.09,10.0,SSW,11.5,-,N/A,,Mostly Cloudy,200,2013-10-02 05:55:00